GW6795 Weather Reports


Display with metric or nautical units.
time (UTC)temp
F
wind
direction
speed
MPH
gust
MPH
rain 1hr
in
rain 24hr
in
rain mn
in
humidity
%
barometer
mb
20260505212546 51 339 2.0 5.0 0.00 0.00 0.42 87 1009.8
20260505212047 51 305 1.0 5.0 0.00 0.00 0.42 87 1009.8
20260505211547 51 333 5.0 9.0 0.00 0.00 0.42 86 1009.8
20260505211048 52 318 2.0 6.0 0.00 0.00 0.42 86 1009.8
20260505210548 52 315 3.0 7.0 0.00 0.00 0.42 86 1009.8
20260505210046 52 247 2.0 5.0 0.00 0.00 0.42 86 1009.8
20260505205547 52 325 4.0 8.0 0.00 0.00 0.42 85 1009.8
20260505205046 52 306 3.0 5.0 0.00 0.00 0.42 85 1009.8
20260505204546 52 325 3.0 4.0 0.00 0.00 0.42 85 1009.8
20260505204047 52 312 6.0 7.0 0.00 0.00 0.42 85 1009.8
20260505203547 52 293 4.0 9.0 0.00 0.00 0.42 85 1009.8
20260505203048 52 295 3.0 7.0 0.00 0.00 0.42 85 1009.8
20260505202546 52 349 0.0 4.0 0.00 0.00 0.42 85 1009.8
20260505202046 52 313 3.0 6.0 0.00 0.00 0.42 84 1009.8
20260505201546 52 309 4.0 6.0 0.00 0.00 0.42 84 1009.8
20260505201046 52 270 1.0 5.0 0.00 0.00 0.42 84 1009.8
20260505200546 52 308 2.0 5.0 0.00 0.00 0.42 84 1009.8
20260505200047 52 49 5.0 6.0 0.00 0.00 0.42 84 1009.8
20260505195111 52 296 7.0 7.0 0.00 0.00 0.42 84 1009.8
20260505194547 52 293 3.0 6.0 0.00 0.00 0.42 84 1009.8
20260505194047 52 324 3.0 6.0 0.00 0.00 0.42 84 1009.8
20260505193547 52 271 3.0 5.0 0.00 0.00 0.42 84 1009.8
20260505193047 52 308 3.0 7.0 0.00 0.00 0.42 84 1009.5
20260505192548 53 39 6.0 8.0 0.00 0.00 0.42 84 1009.5
20260505192046 53 339 3.0 4.0 0.00 0.00 0.42 84 1009.5
20260505191546 53 303 3.0 5.0 0.00 0.00 0.42 84 1009.5
20260505191046 53 356 4.0 4.0 0.00 0.00 0.42 84 1009.5
20260505190552 53 311 3.0 6.0 0.00 0.00 0.42 84 1009.5
20260505190046 53 283 3.0 7.0 0.00 0.00 0.42 83 1009.1
20260505185546 53 280 2.0 5.0 0.00 0.00 0.42 83 1009.5
20260505185047 53 307 2.0 3.0 0.00 0.00 0.42 83 1009.5
20260505184547 53 11 4.0 4.0 0.00 0.00 0.42 83 1009.5
20260505184047 53 305 3.0 4.0 0.00 0.00 0.42 83 1009.1
20260505183547 53 293 5.0 10.0 0.00 0.00 0.42 83 1009.5
20260505183047 53 336 3.0 7.0 0.00 0.00 0.42 83 1009.5
20260505182547 53 317 3.0 5.0 0.00 0.00 0.42 84 1009.5
20260505182048 53 330 2.0 8.0 0.00 0.00 0.42 83 1009.5
20260505181547 53 315 5.0 7.0 0.00 0.00 0.42 83 1009.5
20260505181048 53 272 1.0 5.0 0.00 0.00 0.42 84 1009.1
20260505180550 53 298 1.0 6.0 0.00 0.00 0.42 84 1009.5
20260505180047 53 304 2.0 4.0 0.00 0.00 0.42 84 1009.5
20260505175546 53 319 4.0 6.0 0.00 0.00 0.42 84 1009.5
20260505175048 53 6 2.0 8.0 0.00 0.00 0.42 84 1009.1
20260505174547 53 303 2.0 5.0 0.00 0.00 0.42 85 1009.1
20260505174047 53 303 2.0 8.0 0.00 0.00 0.42 84 1009.5
20260505173547 53 323 3.0 9.0 0.00 0.00 0.42 84 1009.1
20260505173047 53 354 3.0 13.0 0.00 0.00 0.42 84 1009.5
20260505172547 53 319 6.0 7.0 0.00 0.00 0.42 84 1009.5
20260505172046 53 301 3.0 4.0 0.00 0.00 0.42 85 1009.1
20260505171547 53 312 4.0 4.0 0.00 0.00 0.42 85 1009.5
20260505171047 53 293 3.0 4.0 0.00 0.00 0.42 85 1009.5
20260505170548 53 281 3.0 6.0 0.00 0.00 0.42 85 1009.5
20260505170047 53 295 1.0 5.0 0.00 0.00 0.42 86 1009.5
20260505165546 53 318 3.0 6.0 0.00 0.00 0.42 85 1009.5
20260505165047 53 307 3.0 5.0 0.00 0.00 0.42 86 1009.5
20260505164547 53 325 3.0 5.0 0.00 0.00 0.42 86 1009.8
20260505164047 53 327 3.0 5.0 0.00 0.00 0.42 86 1009.5
20260505163547 53 320 3.0 7.0 0.00 0.00 0.42 86 1009.8
20260505163049 53 332 2.0 5.0 0.00 0.00 0.42 86 1009.8
20260505162547 53 351 3.0 6.0 0.00 0.00 0.42 86 1009.8
20260505162046 53 7 3.0 4.0 0.00 0.00 0.42 86 1009.5
20260505161546 53 306 4.0 5.0 0.00 0.00 0.42 86 1009.8
20260505161047 53 302 4.0 6.0 0.00 0.00 0.42 86 1009.8
20260505160547 53 283 2.0 6.0 0.00 0.00 0.42 85 1009.8
20260505153047 53 353 3.0 5.0 0.00 0.00 0.42 86 1009.8
20260505152548 53 298 4.0 5.0 0.00 0.00 0.42 86 1009.8
20260505152047 53 300 4.0 5.0 0.00 0.00 0.42 86 1009.8
20260505151547 53 320 4.0 7.0 0.00 0.00 0.42 85 1009.8
20260505151047 54 274 3.0 5.0 0.00 0.00 0.42 86 1009.8
20260505150547 54 16 5.0 6.0 0.00 0.00 0.42 86 1010.2
20260505140547 53 269 2.0 5.0 0.00 0.00 0.42 88 1010.2
20260505124549 52 313 5.0 9.0 0.00 0.00 0.42 90 1010.8
20260505124047 52 321 3.0 6.0 0.00 0.00 0.42 91 1011.2
20260505123546 52 290 2.0 8.0 0.00 0.00 0.42 91 1010.8
20260505123046 52 339 3.0 4.0 0.00 0.00 0.42 92 1010.8
20260505122546 51 309 1.0 7.0 0.00 0.00 0.42 92 1010.8
20260505122047 51 14 5.0 6.0 0.00 0.00 0.42 92 1010.8
20260505121546 51 296 0.0 9.0 0.00 0.00 0.42 92 1011.2
20260505121046 51 328 3.0 4.0 0.00 0.00 0.42 92 1010.5
20260505120546 51 6 3.0 9.0 0.00 0.00 0.42 92 1010.8
20260505120046 51 310 2.0 5.0 0.00 0.00 0.42 93 1010.8
20260505115546 51 278 2.0 6.0 0.00 0.00 0.42 93 1011.2
20260505115046 51 316 3.0 5.0 0.00 0.00 0.42 93 1011.2
20260505114546 51 299 5.0 5.0 0.00 0.00 0.42 93 1011.2
20260505114046 51 305 2.0 6.0 0.00 0.00 0.42 93 1011.2
20260505113546 51 309 3.0 6.0 0.00 0.00 0.42 93 1011.2
20260505113046 51 7 3.0 5.0 0.00 0.00 0.42 94 1011.2
20260505112546 51 308 3.0 5.0 0.00 0.00 0.42 94 1011.2
20260505112046 51 353 5.0 6.0 0.00 0.00 0.42 94 1011.2
20260505111547 51 324 3.0 3.0 0.00 0.00 0.42 94 1011.2
20260505111046 51 341 5.0 7.0 0.00 0.00 0.42 94 1011.2
20260505110546 51 310 4.0 7.0 0.00 0.00 0.42 94 1011.2
20260505102047 50 304 3.0 9.0 0.00 0.00 0.41 94 1011.2
20260505101546 50 318 4.0 8.0 0.00 0.00 0.41 94 1011.5
20260505101046 50 303 4.0 6.0 0.00 0.00 0.41 94 1011.5
20260505100547 50 356 3.0 7.0 0.00 0.00 0.41 94 1011.5
20260505100046 50 305 3.0 3.0 0.00 0.00 0.41 94 1011.5
20260505095549 50 294 3.0 8.0 0.00 0.00 0.41 94 1011.5
20260505095046 50 285 3.0 5.0 0.02 0.00 0.41 94 1011.5
20260505094546 50 300 3.0 4.0 0.00 0.00 0.41 94 1011.2
20260505094046 50 316 4.0 9.0 0.00 0.00 0.41 94 1011.5
20260505093546 50 314 5.0 7.0 0.00 0.00 0.41 94 1011.2
20260505093046 50 337 3.0 7.0 0.00 0.00 0.41 94 1011.5
20260505092546 50 309 2.0 4.0 0.00 0.00 0.41 94 1011.5
20260505092047 50 319 3.0 5.0 0.00 0.00 0.41 94 1011.2
20260505091546 50 317 2.0 4.0 0.00 0.00 0.41 94 1011.5
20260505091046 50 324 3.0 3.0 0.00 0.00 0.41 94 1011.5
20260505090546 50 346 3.0 4.0 0.00 0.00 0.41 94 1011.2
20260505090047 50 345 4.0 5.0 0.00 0.00 0.41 94 1011.5
20260505085546 49 358 3.0 6.0 0.00 0.00 0.41 94 1011.2
20260505085046 49 309 3.0 8.0 0.00 0.00 0.41 94 1011.5
20260505084546 49 342 3.0 7.0 0.00 0.00 0.41 94 1011.5
20260505084047 49 308 3.0 9.0 0.00 0.00 0.41 94 1011.5
20260505083546 49 337 2.0 5.0 0.00 0.00 0.41 94 1011.5
20260505083046 49 340 3.0 7.0 0.00 0.00 0.41 94 1011.5
20260505082547 49 274 3.0 7.0 0.00 0.00 0.41 94 1011.2
20260505082047 49 314 3.0 5.0 0.00 0.00 0.41 94 1011.2
20260505081546 49 303 4.0 7.0 0.00 0.00 0.41 94 1011.2
20260505081047 49 318 3.0 5.0 0.00 0.00 0.41 95 1011.5
20260505080548 49 310 3.0 8.0 0.00 0.00 0.41 94 1011.5
20260505080048 49 297 5.0 7.0 0.00 0.00 0.41 94 1011.2
20260505075546 50 344 4.0 5.0 0.00 0.00 0.41 95 1011.5
20260505075047 49 320 3.0 10.0 0.00 0.00 0.41 94 1011.2
20260505074547 50 295 1.0 6.0 0.00 0.00 0.41 95 1011.5
20260505074046 49 323 3.0 9.0 0.00 0.00 0.41 94 1011.5
20260505073546 50 298 2.0 5.0 0.00 0.00 0.41 95 1011.5
20260505073046 50 313 3.0 5.0 0.00 0.00 0.41 95 1011.5
20260505072547 49 339 3.0 9.0 0.00 0.00 0.41 95 1011.5
20260505072047 50 306 7.0 8.0 0.00 0.00 0.41 95 1011.5
20260505071546 50 321 3.0 5.0 0.00 0.00 0.41 95 1011.5
20260505071046 50 316 4.0 5.0 0.00 0.00 0.41 95 1011.2
20260505070547 50 315 3.0 13.0 0.00 0.00 0.41 95 1011.5
20260505070047 50 314 2.0 6.0 0.00 0.00 0.41 95 1011.5
20260505065547 50 262 4.0 11.0 0.00 0.00 0.41 95 1011.2
20260505065046 50 266 2.0 6.0 0.00 0.00 0.41 95 1011.5
20260505064547 50 294 3.0 9.0 0.00 0.00 0.41 95 1011.2
20260505064048 50 347 5.0 6.0 0.02 0.00 0.41 95 1011.5
20260505063546 50 288 5.0 9.0 0.02 0.00 0.41 95 1011.5
20260505063046 51 341 2.0 4.0 0.00 0.00 0.41 95 1011.5
20260505062547 51 293 2.0 4.0 0.00 0.00 0.41 95 1011.5
20260505062046 51 351 4.0 6.0 0.00 0.00 0.41 95 1011.5
20260505061547 51 315 3.0 5.0 0.00 0.00 0.41 96 1011.5
20260505061047 51 285 2.0 5.0 0.00 0.00 0.41 96 1011.5
20260505060547 51 329 3.0 5.0 0.00 0.00 0.41 96 1011.5
20260505060047 51 297 2.0 7.0 0.00 0.00 0.41 95 1011.5
20260505055547 51 334 4.0 7.0 0.00 0.00 0.41 95 1011.5
20260505055047 51 307 3.0 6.0 0.00 0.00 0.41 96 1011.5
20260505054546 51 325 5.0 5.0 0.00 0.00 0.41 95 1011.5
20260505054046 51 305 4.0 5.0 0.02 0.00 0.41 96 1011.5
20260505053547 51 274 2.0 6.0 0.02 0.00 0.41 96 1011.5
20260505053046 51 306 3.0 4.0 0.00 0.00 0.40 96 1011.5
20260505052546 51 308 3.0 5.0 0.00 0.00 0.40 96 1011.5
20260505052046 51 322 7.0 9.0 0.00 0.00 0.40 96 1011.2
20260505051546 51 310 4.0 7.0 0.00 0.00 0.40 96 1011.2
20260505051046 51 351 6.0 6.0 0.00 0.00 0.40 96 1011.2
20260505050546 51 358 2.0 6.0 0.02 0.00 0.40 96 1011.2
20260505041547 52 347 1.0 5.0 0.05 0.00 0.35 96 1011.2
20260505041047 52 284 1.0 5.0 0.05 0.00 0.35 96 1011.2
20260505040546 52 333 3.0 4.0 0.07 0.00 0.34 96 1011.2
20260505040046 52 289 1.0 4.0 0.07 0.00 0.34 96 1011.2
20260505035547 52 331 1.0 5.0 0.07 0.00 0.33 96 1011.2
20260505035048 52 311 4.0 9.0 0.09 0.00 0.33 95 1011.2
20260505034547 52 296 3.0 4.0 0.07 0.00 0.32 96 1011.2
20260505034047 52 8 4.0 5.0 0.07 0.00 0.31 96 1011.2
20260505033546 53 356 5.0 6.0 0.09 0.00 0.31 95 1011.5
20260505033047 53 275 2.0 6.0 0.07 0.00 0.30 95 1011.2
20260505032546 53 312 3.0 4.0 0.07 0.00 0.29 96 1011.2
20260505032046 53 335 3.0 3.0 0.09 0.00 0.29 96 1011.2
20260505031547 53 288 1.0 3.0 0.09 0.00 0.28 95 1011.2
20260505031046 53 324 2.0 5.0 0.09 0.00 0.27 95 1011.2
20260505030547 53 31 2.0 6.0 0.05 0.00 0.26 95 1011.2
20260505030047 53 0 4.0 5.0 0.09 0.00 0.26 95 1011.5
20260505025547 53 339 4.0 6.0 0.09 0.00 0.25 95 1011.2
20260505025046 54 302 3.0 6.0 0.02 0.00 0.24 95 1011.2
20260505024547 54 289 3.0 4.0 0.05 0.00 0.24 95 1011.5
20260505024046 54 304 5.0 6.0 0.07 0.00 0.23 95 1011.2
20260505023547 54 342 3.0 7.0 0.14 0.00 0.22 95 1011.5
20260505023048 54 280 2.0 6.0 0.12 0.00 0.22 95 1011.2
20260505022546 54 348 3.0 6.0 0.00 0.00 0.20 95 1011.2
20260505022046 54 293 3.0 7.0 0.00 0.00 0.20 95 1011.5
20260505021547 54 339 5.0 6.0 0.00 0.00 0.20 95 1011.2
20260505021046 54 310 4.0 5.0 0.00 0.00 0.20 95 1011.2
20260505020548 54 306 3.0 7.0 0.00 0.00 0.20 95 1011.2
20260505020055 54 317 4.0 10.0 0.00 0.00 0.20 95 1011.2
20260505015547 55 352 3.0 6.0 0.00 0.00 0.20 95 1011.5
20260505015046 55 300 5.0 6.0 0.00 0.00 0.20 95 1011.2
20260505014546 55 333 2.0 6.0 0.02 0.00 0.20 95 1011.2
20260505014046 55 281 6.0 7.0 0.02 0.00 0.20 95 1011.2
20260505013546 55 328 5.0 7.0 0.00 0.00 0.20 95 1011.2
20260505013046 56 338 4.0 7.0 0.00 0.00 0.20 95 1011.5
20260505012546 56 286 3.0 6.0 0.02 0.00 0.20 95 1011.2
20260505012047 56 326 3.0 4.0 0.02 0.00 0.20 95 1011.5
20260505011547 56 302 4.0 6.0 0.02 0.00 0.19 95 1011.5
20260505011047 57 342 4.0 4.0 0.09 0.00 0.19 95 1011.5
20260505010547 57 304 3.0 5.0 0.12 0.00 0.19 95 1011.5
20260505010047 57 291 2.0 5.0 0.21 0.00 0.18 95 1011.5
20260505005546 57 343 3.0 6.0 0.19 0.00 0.16 95 1011.2
20260505005046 57 311 2.0 5.0 0.17 0.00 0.15 95 1011.9
20260505004546 57 310 4.0 5.0 0.19 0.00 0.13 95 1011.5
20260505004046 57 331 1.0 3.0 0.17 0.00 0.11 95 1011.5
20260505003548 57 286 3.0 4.0 0.12 0.00 0.10 95 1011.5
20260505003047 57 309 4.0 5.0 0.14 0.00 0.09 95 1011.5
20260505002546 57 322 2.0 5.0 0.19 0.00 0.07 95 1011.5
20260505002047 57 313 3.0 5.0 0.17 0.00 0.06 95 1011.5
20260505001546 57 286 1.0 3.0 0.09 0.00 0.04 95 1011.5
20260505001047 57 304 2.0 3.0 0.05 0.00 0.04 95 1011.5
20260505000547 57 305 3.0 3.0 0.00 0.00 0.03 95 1011.5
20260505000047 57 285 2.0 3.0 0.00 0.00 0.03 95 1011.9
20260504235546 57 302 3.0 3.0 0.02 0.00 0.03 95 1011.9
20260504235046 57 291 2.0 3.0 0.02 0.00 0.03 95 1011.9
20260504234546 57 309 3.0 3.0 0.00 0.00 0.02 95 1011.9
20260504234047 58 298 3.0 3.0 0.02 0.00 0.02 95 1011.9
20260504233546 57 303 2.0 3.0 0.02 0.00 0.02 95 1011.9
20260504233046 58 289 2.0 3.0 0.00 0.00 0.02 95 1011.9
20260504232546 58 299 3.0 3.0 0.00 0.00 0.02 95 1011.9
20260504232047 57 266 3.0 4.0 0.00 0.00 0.02 95 1011.9
20260504231546 57 301 3.0 3.0 0.00 0.00 0.02 95 1011.9
20260504231055 58 278 2.0 4.0 0.02 0.00 0.02 95 1011.9
20260504230546 58 302 2.0 3.0 0.00 0.00 0.02 95 1012.2
20260504230046 58 299 3.0 3.0 0.02 0.00 0.02 94 1012.2
20260504225547 58 293 3.0 3.0 0.02 0.00 0.02 95 1012.5
20260504225047 58 296 3.0 3.0 0.00 0.00 0.01 95 1012.2
20260504224546 58 299 2.0 3.0 0.02 0.00 0.01 94 1012.5
20260504224046 58 292 2.0 3.0 0.02 0.00 0.01 94 1012.2
20260504223547 58 295 2.0 3.0 0.02 0.00 0.01 94 1012.2
20260504223046 58 275 2.0 3.0 0.02 0.00 0.01 94 1012.2
20260504222546 58 306 3.0 3.0 0.02 0.00 0.00 94 1012.5
20260504222046 58 310 2.0 3.0 0.02 0.00 0.00 94 1012.5
20260504221546 58 288 2.0 3.0 0.00 0.00 0.00 94 1012.5
20260504221047 58 288 3.0 3.0 0.00 0.00 0.00 94 1012.5
20260504220547 58 271 2.0 3.0 0.00 0.00 0.00 94 1012.9
20260504220046 58 268 2.0 2.0 0.00 0.00 0.10 93 1012.9
20260504215547 58 282 1.0 2.0 0.02 0.00 0.10 93 1012.9
20260504215046 58 307 2.0 2.0 0.02 0.00 0.10 93 1012.9
20260504214547 58 295 2.0 3.0 0.00 0.00 0.10 93 1012.9
20260504214047 58 285 1.0 3.0 0.00 0.00 0.10 93 1012.9
20260504213547 58 264 3.0 5.0 0.00 0.00 0.10 93 1012.9
20260504213046 58 262 3.0 3.0 0.00 0.00 0.10 93 1012.9